Regional Weather Roundup
Issued by NWS

Home | Current Version | Previous Version | Graphics & Text | Print | Product List | Glossary On
Versions: 1 2 3 4 5 6 7 8 9 10 11 12 13 14 15 16 17 18 19 20 21 22 23 24 25 26 27
000
ASUS45 KSLC 241210
RWRUT

UTAH REGIONAL WEATHER ROUNDUP
NATIONAL WEATHER SERVICE SALT LAKE CITY UT
600 AM MDT FRI MAR 24 2017

UTZ001>011-023>025-241300-

NORTHERN UTAH

CITY           SKY/WX    TMP DP  RH WIND       PRES   REMARKS
BRIGHAM CITY     N/A     35  31  86 SE3       30.18S
HILL AFB       CLEAR     34  30  83 E12       30.17S WCI  26
LOGAN          CLEAR     32  29  88 NE3       30.18R
OGDEN          CLEAR     32  30  92 S9        30.17S WCI  24
SALT LAKE CITY PTCLDY    36  33  89 SE8       30.18R WCI  30
WENDOVER       CLEAR     36  23  59 CALM      30.18R
HEBER CITY     CLOUDY    34  30  86 E6        30.17R WCI  29

$$

UTZ011>015-024>027-241300-

CENTRAL/NORTHEAST UTAH

CITY           SKY/WX    TMP DP  RH WIND       PRES   REMARKS
PROVO AIRPORT  CLEAR     32  30  92 CALM      30.21R
MOAB/CANYONLAN CLEAR     42  31  64 NW13      30.04R
DELTA          CLEAR     32  32 100 NE5       30.20R WCI  27
PRICE          CLEAR     39  26  59 NW18G30   30.11R WCI  30
RICHFIELD      CLEAR     27  27 100 S3        30.23R
ROOSEVELT      CLEAR     37  32  81 CALM      30.13R
VERNAL         CLOUDY    44  30  57 NE5       30.10R

$$

UTZ013>016-019>022-027-241300-

SOUTHERN UTAH

CITY           SKY/WX    TMP DP  RH WIND       PRES   REMARKS
BRYCE CANYON   PTCLDY    26  19  74 NW7       30.17R WCI  18
CEDAR CITY     PTCLDY    27  24  89 CALM      30.19R
MILFORD        CLEAR    N/A N/A N/A SW5       30.21R
HANKSVILLE     CLEAR     41  28  60 NW6       30.12R
KANAB          CLEAR     32  28  86 N5        30.22S WCI  27
BLANDING       CLEAR     41  27  57 NW14      30.07R

$$

REGIONAL REPORTS     COLORADO/ARIZONA

CITY           SKY/WX    TMP DP  RH WIND       PRES   REMARKS
CRAIG, CO      CLOUDY    37  29  72 N16       30.07R WCI  28
GRAND JUNCTION CLOUDY    41  35  79 N8        30.06R
RIFLE, CO      CLOUDY    41  33  73 W14       30.05R
MONTROSE, CO   CLOUDY    41  32  70 NW26G33   30.04R
CORTEZ, CO     CLOUDY    40  31  70 NW13G24   29.99R WCI  32
COLORADO CITY    N/A     30  28  93 SE3       30.21R
PAGE, AZ       CLEAR     47  32  56 N6        30.10R
GRAND CANYON   CLEAR     27  26  96 S3        30.19R
KINGMAN, AZ    CLEAR     38  32  79 CALM      30.18R
FLAGSTAFF, AZ  CLEAR     30  24  78 VRB5      30.16R WCI  25

$$

REGIONAL REPORTS    NEVADA/IDAHO/WYOMING

CITY           SKY/WX    TMP DP  RH WIND       PRES   REMARKS
LAS VEGAS, NV  CLEAR     53  31  42 CALM      30.14S
ELY, NY        PTCLDY    24  20  84 S9        30.22R WCI  14
ELKO, NV       MOCLDY    31  26  82 E3        30.14F
POCATELLO, ID  CLEAR     32  26  78 E5        30.14S WCI  27
BURLEY, ID     CLEAR     35  25  66 S7        30.11S WCI  29
FORT BRIDGER,    N/A     32  31  96 W13       30.18R WCI  22
EVANSTON, WY   CLOUDY    27  23  85 SW7       30.18R WCI  19
ROCK SPRINGS,  CLOUDY    34  29  82 W3        30.15R

$$




USA.gov is the U.S. government's official web portal to all federal, state and local government web resources and services.